EW5485 Weather Reports


time (UTC)temp
C
wind
direction
speed
KPH
gust
KPH
rain 1hr
cm
rain 24hr
cm
rain mn
cm
humidity
%
barometer
mb
20260505090014 3 78 1.6 6.4 0.00 0.00 0.00 97 1023.2
20260505084510 3 41 0.0 9.7 0.00 0.00 0.00 97 1023.6
20260505083009 3 76 0.0 6.4 0.00 0.00 0.00 97 1023.7
20260505081508 3 48 1.6 9.7 0.00 0.00 0.00 97 1023.8
20260505080005 4 7 4.8 11.3 0.00 0.00 0.00 97 1024.0
20260505074504 5 36 1.6 8.0 0.00 0.00 0.00 98 1024.2
20260505073003 5 83 1.6 8.0 0.00 0.00 0.00 97 1024.5
20260505071502 5 45 1.6 14.5 0.00 0.00 0.00 97 1024.6
20260505070005 5 88 1.6 9.7 0.00 0.00 0.00 97 1024.5
20260505064501 5 68 4.8 11.3 0.00 0.00 0.00 97 1024.5
20260505063100 5 4 4.8 9.7 0.00 0.00 0.00 97 1024.4
20260505061605 5 46 3.2 8.0 0.00 0.00 0.00 97 1024.7
20260505060057 5 10 1.6 9.7 0.00 0.00 0.00 97 1024.7
20260505054555 5 91 3.2 9.7 0.00 0.00 0.00 96 1024.8
20260505053105 5 45 1.6 11.3 0.00 0.00 0.00 96 1024.8
20260505051553 5 52 1.6 8.0 0.00 0.00 0.00 96 1024.8
20260505041548 6 38 1.6 6.4 0.00 0.00 0.00 94 1025.2
20260505040047 7 125 0.0 0.0 0.00 0.00 0.00 93 1025.1
20260505034546 7 93 0.0 0.0 0.00 0.00 0.00 94 1025.3
20260505033106 7 134 0.0 3.2 0.00 0.00 0.00 93 1025.2
20260505031544 7 360 0.0 3.2 0.00 0.00 0.00 95 1025.3
20260505030043 7 106 0.0 3.2 0.00 0.00 0.00 97 1025.4
20260505024539 7 70 1.6 6.4 0.00 0.00 0.00 97 1025.5
20260505023046 6 132 0.0 0.0 0.00 0.00 0.00 97 1025.6
20260505021535 6 69 1.6 8.0 0.00 0.00 0.00 98 1025.7
20260505020032 6 4 0.0 4.8 0.00 0.00 0.00 98 1026.1
20260505014532 5 358 0.0 1.6 0.00 0.00 0.00 98 1026.4
20260505013027 5 358 0.0 0.0 0.00 0.00 0.00 98 1026.5
20260505011525 5 3 0.0 0.0 0.00 0.00 0.00 98 1026.9
20260505010023 5 17 0.0 0.0 0.00 0.00 0.00 98 1027.3
20260505004536 5 197 0.0 0.0 0.00 0.00 0.00 98 1027.5
20260505003019 4 164 0.0 0.0 0.00 0.00 0.00 98 1027.7
20260505001516 4 162 0.0 0.0 0.00 0.00 0.00 98 1028.1
20260505000020 3 344 0.0 0.0 0.00 0.00 0.00 98 1028.3
20260504234522 3 309 0.0 0.0 0.00 0.00 0.00 98 1028.6
20260504233011 3 294 0.0 0.0 0.00 0.00 0.00 98 1028.8
20260504231530 3 245 0.0 0.0 0.00 0.00 0.00 98 1028.9
20260504230011 3 299 0.0 0.0 0.00 0.00 0.00 98 1029.0
20260504224508 3 159 0.0 0.0 0.00 0.00 0.00 98 1028.8
20260504223008 3 299 0.0 0.0 0.00 0.00 0.00 98 1029.0
20260504221507 3 7 0.0 0.0 0.00 0.00 0.00 98 1029.1
20260504220007 2 353 0.0 0.0 0.00 0.00 0.00 98 1029.1
20260504214511 2 310 0.0 0.0 0.00 0.00 0.00 98 1029.3
20260504213007 1 294 0.0 0.0 0.00 0.00 0.00 98 1029.2
20260504211505 1 328 0.0 0.0 0.00 0.00 0.00 98 1029.4
20260504210007 1 292 0.0 0.0 0.00 0.00 0.00 98 1029.3
20260504204505 0 350 0.0 0.0 0.00 0.00 0.00 98 1029.3
20260504203004 0 308 0.0 0.0 0.00 0.00 0.00 98 1029.3
20260504201503 0 333 0.0 0.0 0.00 0.00 0.00 98 1029.2
20260504200008 0 306 0.0 0.0 0.00 0.00 0.00 98 1029.2
20260504194600 0 302 0.0 0.0 0.00 0.00 0.00 98 1029.0
20260504193056 -17 0.0 0.0 0.00 0.00 0.00 1029.0
20260504191552 -17 0.0 0.0 0.00 0.00 0.00 1029.0
20260504190056 -17 0.0 0.0 0.00 0.00 0.00 1028.9
20260504184558 -17 0.0 0.0 0.00 0.00 0.00 1029.0
20260504183038 -17 0.0 0.0 0.00 0.00 0.00 1029.0
20260504181534 -17 0.0 0.0 0.00 0.00 0.00 1028.9
20260504180030 -17 0.0 0.0 0.00 0.00 0.00 1029.0
20260504174525 -17 0.0 0.0 0.00 0.00 0.00 1029.1
20260504173020 -17 0.0 0.0 0.00 0.00 0.00 1029.2
20260504171533 -17 0.0 0.0 0.00 0.00 0.00 1029.1